Regional Weather Roundup
Issued by NWS State College, PA

Home | Current Version | Previous Version | Text Only | Print | Product List | Glossary On
Versions: 1 2 3 4 5 6 7 8 9 10 11 12 13 14 15 16 17 18 19 20 21 22 23 24 25 26 27 28 29 30 31 32 33 34 35 36 37 38 39 40 41 42 43 44 45 46 47 48 49 50
000
ASUS41 KCTP 251410
RWRCTP

REGIONAL WEATHER ROUNDUP
NATIONAL WEATHER SERVICE STATE COLLEGE PA
900 AM EST SUN JAN 25 2015

Note: "fair" indicates few or no clouds below 12,000 feet with no
significant weather and/or obstructions to visibility.

* = STATION THAT DOES NOT REPORT PRECIPITATION /E.G. RAIN...SNOW...ETC/
    THUNDER OR FOG.

PAZ002>004-007>009-013>016-020>023-029>032-251500-
WESTERN PENNSYLVANIA

CITY           SKY/WX    TMP DP  RH WIND       PRES   REMARKS
ERIE           LGT SNOW  24  16  71 NE14      29.85R WCI  12
MEADVILLE      LGT SNOW  26  23  88 N7        29.77R FOG
FRANKLIN*      CLOUDY    27  21  80 CALM      29.77R
NEW CASTLE     PTSUNNY   33  32  96 CALM      29.77S FOG
BEAVER COUNTY  CLOUDY    32  32 100 CALM      29.75  FOG
BUTLER*        CLOUDY    34  30  86 W5        29.77S
PITTSBURGH INT CLOUDY    33  31  92 SW6       29.75S FOG
PITTSBURGH     CLOUDY    33  28  81 SW9       29.75S HAZE
INDIANA*       CLOUDY    34  32  93 W6        29.78S FOG
LATROBE        CLOUDY    32  32 100 SW7       29.78S FOG
WASHINGTON CO* CLOUDY    34  30  86 SW6       29.78S
$$

PAZ004>006-010>012-017>019-024>028-033>037-041-042-045-046-049>053-251500-
CENTRAL PENNSYLVANIA

CITY           SKY/WX    TMP DP  RH WIND       PRES   REMARKS
BRADFORD       CLOUDY    24  20  84 N12       29.71R WCI  13
DUBOIS         CLOUDY    31  29  92 NW6       29.72R FOG
CLEARFIELD     CLOUDY    33  30  88 W3        29.73R
JOHNSTOWN      FOG       30  29  96 W10       29.70R VSB 1/4
ALTOONA        CLOUDY    34  31  88 W8        29.74R
STATE COLLEGE  CLOUDY    34  30  86 W10       29.74R
WILLIAMSPORT   CLOUDY    37  23  56 NW12      29.75R
SELINSGROVE    CLOUDY    39  30  70 CALM      29.76R
FT INDIANTOWN  CLOUDY    37  29  72 SW9       29.76R
CAPITAL CITY   CLOUDY    38  28  67 W5        29.79R
HARRISBURG     CLOUDY    37  29  72 SW13      29.78R
YORK           CLOUDY    38  28  67 SW9       29.79R
$$

PAZ038>040-043-044-047-048-054-055-060>062-067>071-251500-
EASTERN PENNSYLVANIA

CITY           SKY/WX    TMP DP  RH WIND       PRES   REMARKS
SCRANTON       MOSUNNY   34  17  50 NW12G22   29.71R
MOUNT POCONO   PTSUNNY   31  20  63 NW16G28   29.64R
ALLENTOWN      PTSUNNY   38  28  67 W9        29.73R
QUAKERTOWN*    NOT AVBL
READING        CLOUDY    37  28  70 CALM      29.75R
LANCASTER      CLOUDY    36  28  73 W10       29.77R
COATESVILLE    CLOUDY    37  32  81 W7        29.77R
POTTSTOWN      CLOUDY    38  28  67 W7        29.77R
BLUE BELL      CLOUDY    37  30  75 SW6       29.76R
DOYLESTOWN     PTSUNNY   36  28  73 W7        29.73R
WILLOW GROVE   NOT AVBL
NORTH PHILA    MOSUNNY   39  27  62 SW10      29.79R
PHILADELPHIA   PTSUNNY   38  29  70 SW17      29.80R
$$


USA.gov is the U.S. government's official web portal to all federal, state and local government web resources and services.